STARLINK-11313, 61255

Orbit data source: Space-Track

STARLINK-11313, 61255 is a payload satellite owned by SpaceX/Seattle (US) in LEO that was launched on Wed, 25 Sep 2024 UTC via an FALCON 9 launch vehicle from the Air Force Western Test Range (AFWTR). Payload-class satellites include a variety of spacecraft equipped with specific instruments for various scientific and technological missions. These include communications satellites like Starlink; space stations such as the ISS; scientific satellites like the Hubble; Earth observation satellites from companies like Planet Labs, Umbra, and HawkEye 360; GPS; miniature CubeSats for education and research; and military/defense satellites.

Loading next visibility...
Identifier
61255, 2024-175N
Orbit
LEO
Last TLE update
22 hours ago
Origin
Manufacturer
SpaceX/Seattle
Mission
Operational Commercial Communications
Bus & Motor
STARLINK V2M, Unknown motor
Mass
730 kg wet, ~700 kg dry
Launch date (UTC)
2024-09-25 (7 months ago)
Launch vehicle
FALCON 9
Launch site
Air Force Western Test Range (AFWTR)
Object type
Payload
Rocket body
Debris
Shape & HBR
Box + 2 Pan, 29 m
Radar Cross Section
36.964 m², Large (>1 m²)

Expand to show TLE details & history

TLE from 22 hours ago
0 STARLINK-11313
1 61255U 24175N   25128.38416600  .00001426  00000-0  16621-4 0  9997
2 61255  53.1583 121.3930 0001315  77.7065 282.4100 15.69716671 35416
Epoch: 2025-05-08T09:13Z
Definitive object data (Epoch: 2025-05-08T09:13:11.942Z)
Latitude
-0.00002°
Longitude
116.63779°
Altitude
360.432 km
Speed
7.694 km/s
True Right ascension
08h 05m 34s
True Declination
0° 00' 00"
Sunlit
Object was in daylight at TLE epoch
Visualization TLE readout
Latitude
37.58711°
Longitude
147.19247°
Altitude
362.023 km
Speed
7.697 km/s
Apparent Right ascension
06h 46m 39s
Apparent Declination
0° 10' 52"
Sunlit
Object is in daylight
Visualization observer readout
Local Sidereal Time
14:58:13
Azimuth
292.68° NW
Elevation
-24.488°
Doppler factor
1
Orbital elements
Apogee altitude
360.855 km
Perigee altitude
359.083 km
Semi-major axis
6,738.106 km
Eccentricity
0.0001315
Inclination
53.1583°
RAAN
121.393°
Arg. of periapsis
77.7065°
True anomaly
282.39528°
Mean anomaly
282.41°
Eccentric anomaly
282.40264°
Mean motion
3.92407 °/min
BSTAR
0.000016621
Orbital period
91.74 mins
Loading maneuver chart data...
Loading SW <> Apogee altitude chart data...
Loading historical data...
Loading historical data...
Loading historical data...
Loading historical data...
Loading historical data...
Loading historical data...
Loading historical data...

STARLINK-11313 Visibility forecast

Observer location: undefined°, undefined°

Span
Click to sort rows by Start time (UTC) header in descending order
Start Az.
Max El. time (UTC)
Max El. Az.
Max El.
End time (UTC)
End Az.
4 mins2025-05-09 08:38:19.988Z330.766° NNW2025-05-09 08:40:19.988Z72.576° E34.252°2025-05-09 08:42:19.988Z111.859° ESE
|